26/04/2024 04:00:00,0.505
26/04/2024 04:15:00,0.504
26/04/2024 04:30:00,0.504
26/04/2024 04:45:00,0.504
26/04/2024 05:00:00,0.504
26/04/2024 05:15:00,0.504
26/04/2024 05:30:00,0.505
26/04/2024 05:45:00,0.505
26/04/2024 06:00:00,0.505
26/04/2024 06:15:00,0.505
26/04/2024 06:30:00,0.505
26/04/2024 06:45:00,0.505
26/04/2024 07:00:00,0.505
26/04/2024 07:15:00,0.505
26/04/2024 07:30:00,0.505
26/04/2024 07:45:00,0.505
26/04/2024 08:00:00,0.504
26/04/2024 08:15:00,0.504
26/04/2024 08:30:00,0.504
26/04/2024 08:45:00,0.503
26/04/2024 09:00:00,0.503
26/04/2024 09:15:00,0.503
26/04/2024 09:30:00,0.503
26/04/2024 09:45:00,0.503
26/04/2024 10:00:00,0.503
26/04/2024 10:15:00,0.503
26/04/2024 10:30:00,0.503
26/04/2024 10:45:00,0.503
26/04/2024 11:00:00,0.503
26/04/2024 11:15:00,0.502
26/04/2024 11:30:00,0.501
26/04/2024 11:45:00,0.501
26/04/2024 12:00:00,0.501
26/04/2024 12:15:00,0.501
26/04/2024 12:30:00,0.501
26/04/2024 12:45:00,0.501
26/04/2024 13:00:00,0.501
26/04/2024 13:15:00,0.502
26/04/2024 13:30:00,0.502
26/04/2024 13:45:00,0.503
26/04/2024 14:00:00,0.503
26/04/2024 14:15:00,0.502
26/04/2024 14:30:00,0.501
26/04/2024 14:45:00,0.501
26/04/2024 15:00:00,0.501
26/04/2024 15:15:00,0.501
26/04/2024 15:30:00,0.5
26/04/2024 15:45:00,0.5
26/04/2024 16:00:00,0.499
26/04/2024 16:15:00,0.499
26/04/2024 16:30:00,0.498
26/04/2024 16:45:00,0.496
26/04/2024 17:00:00,0.495
26/04/2024 17:15:00,0.495
26/04/2024 17:30:00,0.494
26/04/2024 17:45:00,0.494
26/04/2024 18:00:00,0.494
26/04/2024 18:15:00,0.494
26/04/2024 18:30:00,0.494
26/04/2024 18:45:00,0.494
26/04/2024 19:00:00,0.493
26/04/2024 19:15:00,0.493
26/04/2024 19:30:00,0.492
26/04/2024 19:45:00,0.492
26/04/2024 20:00:00,0.492
26/04/2024 20:15:00,0.492
26/04/2024 20:30:00,0.492
26/04/2024 20:45:00,0.492
26/04/2024 21:00:00,0.492
26/04/2024 21:15:00,0.491
26/04/2024 21:30:00,0.491
26/04/2024 21:45:00,0.491
26/04/2024 22:00:00,0.491
26/04/2024 22:15:00,0.491
26/04/2024 22:30:00,0.491
26/04/2024 22:45:00,0.491
26/04/2024 23:00:00,0.49
26/04/2024 23:15:00,0.49
26/04/2024 23:30:00,0.49
26/04/2024 23:45:00,0.49
27/04/2024 00:00:00,0.489
27/04/2024 00:15:00,0.489
27/04/2024 00:30:00,0.488
27/04/2024 00:45:00,0.488
27/04/2024 01:00:00,0.488
27/04/2024 01:15:00,0.488
27/04/2024 01:30:00,0.488
27/04/2024 01:45:00,0.488
27/04/2024 02:00:00,0.487
27/04/2024 02:15:00,0.487
27/04/2024 02:30:00,0.485
27/04/2024 02:45:00,0.485
27/04/2024 03:00:00,0.485
27/04/2024 03:15:00,0.485
27/04/2024 03:30:00,0.485
27/04/2024 03:45:00,0.485
27/04/2024 04:00:00,0.484
27/04/2024 04:15:00,0.484
27/04/2024 04:30:00,0.484
27/04/2024 04:45:00,0.484
27/04/2024 05:00:00,0.484
27/04/2024 05:15:00,0.484
27/04/2024 05:30:00,0.484
27/04/2024 05:45:00,0.484
27/04/2024 06:00:00,0.484
27/04/2024 06:15:00,0.484
27/04/2024 06:30:00,0.483
27/04/2024 06:45:00,0.483
27/04/2024 07:00:00,0.483
27/04/2024 07:15:00,0.483
27/04/2024 07:30:00,0.483
27/04/2024 07:45:00,0.483
27/04/2024 08:00:00,0.483
27/04/2024 08:15:00,0.483
27/04/2024 08:30:00,0.483
27/04/2024 08:45:00,0.482
27/04/2024 09:00:00,0.482
27/04/2024 09:15:00,0.482
27/04/2024 09:30:00,0.482
27/04/2024 09:45:00,0.482
27/04/2024 10:00:00,0.482
27/04/2024 10:15:00,0.482
27/04/2024 10:30:00,0.482
27/04/2024 10:45:00,0.481
27/04/2024 11:00:00,0.482
27/04/2024 11:15:00,0.482
27/04/2024 11:30:00,0.482
27/04/2024 11:45:00,0.481
27/04/2024 12:00:00,0.481
27/04/2024 12:15:00,0.481
27/04/2024 12:30:00,0.481
27/04/2024 12:45:00,0.481
27/04/2024 13:00:00,0.481
27/04/2024 13:15:00,0.48
27/04/2024 13:30:00,0.48
27/04/2024 13:45:00,0.48
27/04/2024 14:00:00,0.48
27/04/2024 14:15:00,0.48
27/04/2024 14:30:00,0.479
27/04/2024 14:45:00,0.48
27/04/2024 15:00:00,0.48
27/04/2024 15:15:00,0.48
27/04/2024 15:30:00,0.48
27/04/2024 15:45:00,0.48
27/04/2024 16:00:00,0.48
27/04/2024 16:15:00,0.479
27/04/2024 16:30:00,0.479
27/04/2024 16:45:00,0.479
27/04/2024 17:00:00,0.478
27/04/2024 17:15:00,0.478
27/04/2024 17:30:00,0.478
27/04/2024 17:45:00,0.478
27/04/2024 18:00:00,0.478
27/04/2024 18:15:00,0.477
27/04/2024 18:30:00,0.476
27/04/2024 18:45:00,0.476
27/04/2024 19:00:00,0.476
27/04/2024 19:15:00,0.474
27/04/2024 19:30:00,0.474
27/04/2024 19:45:00,0.474
27/04/2024 20:00:00,0.474
27/04/2024 20:15:00,0.474
27/04/2024 20:30:00,0.474
27/04/2024 20:45:00,0.473
27/04/2024 21:00:00,0.473
27/04/2024 21:15:00,0.472
27/04/2024 21:30:00,0.472
27/04/2024 21:45:00,0.472
27/04/2024 22:00:00,0.472
27/04/2024 22:15:00,0.472
27/04/2024 22:30:00,0.472
27/04/2024 22:45:00,0.472
27/04/2024 23:00:00,0.472
27/04/2024 23:15:00,0.471
27/04/2024 23:30:00,0.471
27/04/2024 23:45:00,0.471
28/04/2024 00:00:00,0.471
28/04/2024 00:15:00,0.471
28/04/2024 00:30:00,0.471
28/04/2024 00:45:00,0.471
28/04/2024 01:00:00,0.47
28/04/2024 01:15:00,0.47
28/04/2024 01:30:00,0.47
28/04/2024 01:45:00,0.47
28/04/2024 02:00:00,0.47
28/04/2024 02:15:00,0.47
28/04/2024 02:30:00,0.47
28/04/2024 02:45:00,0.47
28/04/2024 03:00:00,0.47
28/04/2024 03:15:00,0.47
28/04/2024 03:30:00,0.47
28/04/2024 03:45:00,0.47
28/04/2024 04:00:00,0.47
28/04/2024 04:15:00,0.47
28/04/2024 04:30:00,0.47
28/04/2024 04:45:00,0.47
28/04/2024 05:00:00,0.47
28/04/2024 05:15:00,0.47
28/04/2024 05:30:00,0.47
28/04/2024 05:45:00,0.47
28/04/2024 06:00:00,0.47
28/04/2024 06:15:00,0.47
28/04/2024 06:30:00,0.47
28/04/2024 06:45:00,0.47
28/04/2024 07:00:00,0.47
28/04/2024 07:15:00,0.47
28/04/2024 07:30:00,0.47
28/04/2024 07:45:00,0.47
28/04/2024 08:00:00,0.47
28/04/2024 08:15:00,0.47
28/04/2024 08:30:00,0.47
28/04/2024 08:45:00,0.47
28/04/2024 09:00:00,0.469
28/04/2024 09:15:00,0.469
28/04/2024 09:30:00,0.469
28/04/2024 09:45:00,0.469
28/04/2024 10:00:00,0.469
28/04/2024 10:15:00,0.468
28/04/2024 10:30:00,0.468
28/04/2024 10:45:00,0.468
28/04/2024 11:00:00,0.468
28/04/2024 11:15:00,0.468
28/04/2024 11:30:00,0.468
28/04/2024 11:45:00,0.469
28/04/2024 12:00:00,0.469
28/04/2024 12:15:00,0.469
28/04/2024 12:30:00,0.469
28/04/2024 12:45:00,0.469
28/04/2024 13:00:00,0.468
28/04/2024 13:15:00,0.468
28/04/2024 13:30:00,0.468
28/04/2024 13:45:00,0.469
28/04/2024 14:00:00,0.468
28/04/2024 14:15:00,0.468
28/04/2024 14:30:00,0.469
28/04/2024 14:45:00,0.468
28/04/2024 15:00:00,0.468
28/04/2024 15:15:00,0.467
28/04/2024 15:30:00,0.468
28/04/2024 15:45:00,0.468
28/04/2024 16:00:00,0.468
28/04/2024 16:15:00,0.468
28/04/2024 16:30:00,0.468
28/04/2024 16:45:00,0.468
28/04/2024 17:00:00,0.467
28/04/2024 17:15:00,0.467
28/04/2024 17:30:00,0.468
28/04/2024 17:45:00,0.467
28/04/2024 18:00:00,0.467
28/04/2024 18:15:00,0.467
28/04/2024 18:30:00,0.466
28/04/2024 18:45:00,0.467
28/04/2024 19:00:00,0.466
28/04/2024 19:15:00,0.466
28/04/2024 19:30:00,0.465
28/04/2024 19:45:00,0.463
28/04/2024 20:00:00,0.462
28/04/2024 20:15:00,0.462
28/04/2024 20:30:00,0.462
28/04/2024 20:45:00,0.463
28/04/2024 21:00:00,0.463
28/04/2024 21:15:00,0.463
28/04/2024 21:30:00,0.462
28/04/2024 21:45:00,0.462
28/04/2024 22:00:00,0.462
28/04/2024 22:15:00,0.461
28/04/2024 22:30:00,0.461
28/04/2024 22:45:00,0.461
28/04/2024 23:00:00,0.461
28/04/2024 23:15:00,0.461
28/04/2024 23:30:00,0.461
28/04/2024 23:45:00,0.46
29/04/2024 00:00:00,0.46
29/04/2024 00:15:00,0.46
29/04/2024 00:30:00,0.46
29/04/2024 00:45:00,0.461
29/04/2024 01:00:00,0.462
29/04/2024 01:15:00,0.462
29/04/2024 01:30:00,0.463
29/04/2024 01:45:00,0.463
29/04/2024 02:00:00,0.462
29/04/2024 02:15:00,0.463
29/04/2024 02:30:00,0.463
29/04/2024 02:45:00,0.465
29/04/2024 03:00:00,0.465
29/04/2024 03:15:00,0.465
29/04/2024 03:30:00,0.465
29/04/2024 03:45:00,0.465
29/04/2024 04:00:00,0.463
29/04/2024 04:15:00,0.463
29/04/2024 04:30:00,0.465
29/04/2024 04:45:00,0.465
29/04/2024 05:00:00,0.463
29/04/2024 05:15:00,0.463
29/04/2024 05:30:00,0.465
29/04/2024 05:45:00,0.465
29/04/2024 06:00:00,0.465
29/04/2024 06:15:00,0.467
29/04/2024 06:30:00,0.468
29/04/2024 06:45:00,0.468
29/04/2024 07:00:00,0.47
29/04/2024 07:15:00,0.47
29/04/2024 07:30:00,0.471
29/04/2024 07:45:00,0.472
29/04/2024 08:00:00,0.474
29/04/2024 08:15:00,0.474
29/04/2024 08:30:00,0.474
29/04/2024 08:45:00,0.474
29/04/2024 09:00:00,0.474
29/04/2024 09:15:00,0.474
29/04/2024 09:30:00,0.474
29/04/2024 09:45:00,0.474
29/04/2024 10:00:00,0.474
29/04/2024 10:15:00,0.474
29/04/2024 10:30:00,0.474
29/04/2024 10:45:00,0.474
29/04/2024 11:00:00,0.474
29/04/2024 11:15:00,0.473
29/04/2024 11:30:00,0.472
29/04/2024 11:45:00,0.472
29/04/2024 12:00:00,0.472
29/04/2024 12:15:00,0.472
29/04/2024 12:30:00,0.472
29/04/2024 12:45:00,0.471
29/04/2024 13:00:00,0.471
29/04/2024 13:15:00,0.471
29/04/2024 13:30:00,0.471
29/04/2024 13:45:00,0.47
29/04/2024 14:00:00,0.47
29/04/2024 14:15:00,0.47
29/04/2024 14:30:00,0.47
29/04/2024 14:45:00,0.47
29/04/2024 15:00:00,0.471
29/04/2024 15:15:00,0.471
29/04/2024 15:30:00,0.471
29/04/2024 15:45:00,0.471
29/04/2024 16:00:00,0.472
29/04/2024 16:15:00,0.472
29/04/2024 16:30:00,0.472
29/04/2024 16:45:00,0.472
29/04/2024 17:00:00,0.472
29/04/2024 17:15:00,0.472
29/04/2024 17:30:00,0.473
29/04/2024 17:45:00,0.474
29/04/2024 18:00:00,0.474
29/04/2024 18:15:00,0.474
29/04/2024 18:30:00,0.474
29/04/2024 18:45:00,0.476
29/04/2024 19:00:00,0.476
29/04/2024 19:15:00,0.477
29/04/2024 19:30:00,0.477
29/04/2024 19:45:00,0.478
29/04/2024 20:00:00,0.478
29/04/2024 20:15:00,0.478
29/04/2024 20:30:00,0.478
29/04/2024 20:45:00,0.478
29/04/2024 21:00:00,0.478
29/04/2024 21:15:00,0.48
29/04/2024 21:30:00,0.48
29/04/2024 21:45:00,0.48
29/04/2024 22:00:00,0.48
29/04/2024 22:15:00,0.48
29/04/2024 22:30:00,0.48
29/04/2024 22:45:00,0.48
29/04/2024 23:00:00,0.48
29/04/2024 23:15:00,0.48
29/04/2024 23:30:00,0.48
29/04/2024 23:45:00,0.48
30/04/2024 00:00:00,0.48
30/04/2024 00:15:00,0.48
30/04/2024 00:30:00,0.48
30/04/2024 00:45:00,0.48
30/04/2024 01:00:00,0.48
30/04/2024 01:15:00,0.481
30/04/2024 01:30:00,0.481
30/04/2024 01:45:00,0.481
30/04/2024 02:00:00,0.482
30/04/2024 02:15:00,0.482
30/04/2024 02:30:00,0.482
30/04/2024 02:45:00,0.483
30/04/2024 03:00:00,0.484
30/04/2024 03:15:00,0.483
30/04/2024 03:30:00,0.483
30/04/2024 03:45:00,0.483
30/04/2024 04:00:00,0.483
30/04/2024 04:15:00,0.482
30/04/2024 04:30:00,0.482
30/04/2024 04:45:00,0.482
30/04/2024 05:00:00,0.482
30/04/2024 05:15:00,0.482
30/04/2024 05:30:00,0.482
30/04/2024 05:45:00,0.482
30/04/2024 06:00:00,0.482
30/04/2024 06:15:00,0.482
30/04/2024 06:30:00,0.482
30/04/2024 06:45:00,0.482
30/04/2024 07:00:00,0.484
30/04/2024 07:15:00,0.484
30/04/2024 07:30:00,0.484
30/04/2024 07:45:00,0.485
30/04/2024 08:00:00,0.485
30/04/2024 08:15:00,0.485
30/04/2024 08:30:00,0.485
30/04/2024 08:45:00,0.485
30/04/2024 09:00:00,0.487
30/04/2024 09:15:00,0.487
30/04/2024 09:30:00,0.487
30/04/2024 09:45:00,0.488
30/04/2024 10:00:00,0.485
30/04/2024 10:15:00,0.485
30/04/2024 10:30:00,0.485
30/04/2024 10:45:00,0.485
30/04/2024 11:00:00,0.485
30/04/2024 11:15:00,0.485
30/04/2024 11:30:00,0.485
30/04/2024 11:45:00,0.484
30/04/2024 12:00:00,0.484
30/04/2024 12:15:00,0.484
30/04/2024 12:30:00,0.484
30/04/2024 12:45:00,0.484
30/04/2024 13:00:00,0.484
30/04/2024 13:15:00,0.484
30/04/2024 13:30:00,0.484
30/04/2024 13:45:00,0.484
30/04/2024 14:00:00,0.484
30/04/2024 14:15:00,0.484
30/04/2024 14:30:00,0.485
30/04/2024 14:45:00,0.485
30/04/2024 15:00:00,0.485
30/04/2024 15:15:00,0.485
30/04/2024 15:30:00,0.487
30/04/2024 15:45:00,0.487
30/04/2024 16:00:00,0.488
30/04/2024 16:15:00,0.488
30/04/2024 16:30:00,0.488
30/04/2024 16:45:00,0.488
30/04/2024 17:00:00,0.489
30/04/2024 17:15:00,0.49
30/04/2024 17:30:00,0.49
30/04/2024 17:45:00,0.491
30/04/2024 18:00:00,0.491
30/04/2024 18:15:00,0.491
30/04/2024 18:30:00,0.492
30/04/2024 18:45:00,0.492
30/04/2024 19:00:00,0.492
30/04/2024 19:15:00,0.492
30/04/2024 19:30:00,0.492
30/04/2024 19:45:00,0.491
30/04/2024 20:00:00,0.491
30/04/2024 20:15:00,0.491
30/04/2024 20:30:00,0.491
30/04/2024 20:45:00,0.49
30/04/2024 21:00:00,0.49
30/04/2024 21:15:00,0.489
30/04/2024 21:30:00,0.489
30/04/2024 21:45:00,0.488
30/04/2024 22:00:00,0.488
30/04/2024 22:15:00,0.487
30/04/2024 22:30:00,0.487
30/04/2024 22:45:00,0.484
30/04/2024 23:00:00,0.484
30/04/2024 23:15:00,0.484
30/04/2024 23:30:00,0.483
30/04/2024 23:45:00,0.482
01/05/2024 00:00:00,0.482
01/05/2024 00:15:00,0.481
01/05/2024 00:30:00,0.481
01/05/2024 00:45:00,0.481
01/05/2024 01:00:00,0.48
01/05/2024 01:15:00,0.48
